FDX2023 KATL-TNCA

Flight info

Callsign FDX2023
Flight time 3h 18m
Altitude 35000
Route VRSTY3 NOKIE DCT YANTI Q89 MANLE Y185 VENDS Y298 KNSLY Y398 JOSES UA315 VESKA VESKA2A
Aircraft MD11/H-SDE1E2E3FGHIJ2J3J4J5M1RWXY/LB1D1

Departure

Time 2026-05-04 09:52
Airport Hartsfield Jackson Atlanta International Airport (KATL)

Arrival

Time 2026-05-04 13:10
Airport Queen Beatrix International Airport (TNCA)
Time Latitude Longitude Altitude Speed Heading
2026-05-04 09:29 33.65331 -84.41328 1014 ft 0 kts 37°
2026-05-04 09:42 33.65300 -84.41405 1014 ft 2 kts 91°
2026-05-04 09:43 33.65301 -84.41424 1014 ft 2 kts 100°
2026-05-04 09:43 33.65304 -84.41443 1014 ft 2 kts 100°
2026-05-04 09:43 33.65306 -84.41463 1014 ft 2 kts 115°
2026-05-04 09:43 33.65307 -84.41463 1014 ft 0 kts 115°
2026-05-04 09:46 33.65306 -84.41462 1014 ft 0 kts 115°
2026-05-04 09:46 33.65301 -84.41454 1014 ft 3 kts 125°
2026-05-04 09:46 33.65280 -84.41417 1014 ft 8 kts 125°
2026-05-04 09:47 33.65235 -84.41366 1014 ft 10 kts 155°
2026-05-04 09:47 33.65171 -84.41356 1014 ft 9 kts 171°
2026-05-04 09:49 33.64907 -84.40962 1013 ft 19 kts 175°
2026-05-04 09:49 33.64847 -84.40862 1013 ft 12 kts 88°
2026-05-04 09:49 33.64845 -84.40775 1014 ft 10 kts 91°
2026-05-04 09:51 33.64690 -84.40613 1011 ft 7 kts 248°
2026-05-04 09:51 33.64681 -84.40693 1011 ft 18 kts 267°
2026-05-04 09:51 33.64679 -84.41186 1014 ft 99 kts 270°
2026-05-04 09:51 33.64679 -84.42307 1012 ft 165 kts 270°
2026-05-04 09:52 33.64678 -84.43810 1284 ft 186 kts 270°
2026-05-04 09:52 33.64686 -84.45404 1890 ft 192 kts 272°
2026-05-04 09:52 33.64815 -84.46977 2730 ft 189 kts 279°
2026-05-04 09:52 33.65086 -84.48519 3586 ft 189 kts 282°
2026-05-04 09:53 33.65388 -84.50074 4338 ft 197 kts 283°
2026-05-04 09:53 33.65709 -84.51710 4946 ft 206 kts 282°
2026-05-04 09:53 33.66030 -84.53428 5582 ft 218 kts 282°
2026-05-04 09:53 33.66361 -84.55266 6237 ft 231 kts 282°
2026-05-04 09:54 33.66619 -84.57222 6856 ft 242 kts 272°
2026-05-04 09:54 33.66424 -84.59221 7449 ft 248 kts 252°
2026-05-04 09:54 33.65714 -84.61151 7946 ft 257 kts 243°
2026-05-04 09:54 33.64821 -84.63059 8428 ft 267 kts 241°
2026-05-04 09:55 33.63787 -84.65004 8712 ft 286 kts 229°
2026-05-04 09:55 33.62262 -84.66560 9308 ft 292 kts 214°
2026-05-04 09:55 33.60528 -84.67859 9954 ft 296 kts 210°
2026-05-04 09:55 33.58696 -84.69025 10559 ft 299 kts 201°
2026-05-04 09:56 33.56659 -84.69512 11223 ft 300 kts 179°
2026-05-04 09:56 33.54564 -84.69316 11837 ft 304 kts 172°
2026-05-04 09:56 33.52469 -84.68912 12492 ft 307 kts 170°
2026-05-04 09:56 33.50357 -84.68467 13156 ft 310 kts 170°
2026-05-04 09:57 33.48253 -84.68029 13817 ft 313 kts 171°
2026-05-04 09:57 33.46094 -84.67591 14419 ft 316 kts 172°
2026-05-04 09:57 33.43913 -84.67049 14955 ft 323 kts 164°
2026-05-04 09:57 33.41817 -84.65858 15085 ft 345 kts 142°
2026-05-04 09:58 33.40162 -84.63756 15227 ft 363 kts 124°
2026-05-04 09:58 33.38807 -84.61125 15364 ft 381 kts 118°
2026-05-04 09:58 33.37521 -84.58258 15502 ft 399 kts 117°
2026-05-04 10:00 33.27667 -84.37023 19063 ft 434 kts 120°
2026-05-04 10:00 33.26159 -84.33877 19550 ft 438 kts 120°
2026-05-04 10:02 33.15238 -84.11167 22715 ft 464 kts 121°
2026-05-04 10:04 33.00601 -83.90629 25356 ft 477 kts 150°
2026-05-04 10:04 32.97819 -83.88457 25720 ft 480 kts 150°
2026-05-04 10:04 32.95032 -83.86244 26071 ft 483 kts 149°
2026-05-04 10:04 32.92276 -83.84006 26422 ft 486 kts 148°
2026-05-04 10:05 32.89485 -83.81699 26781 ft 489 kts 148°
2026-05-04 10:05 32.86681 -83.79359 27116 ft 492 kts 148°
2026-05-04 10:05 32.83871 -83.77003 27457 ft 495 kts 148°
2026-05-04 10:05 32.81045 -83.74631 27794 ft 498 kts 148°
2026-05-04 10:06 32.78204 -83.72250 28128 ft 501 kts 148°
2026-05-04 10:06 32.75351 -83.69862 28445 ft 503 kts 148°
2026-05-04 10:06 32.72474 -83.67459 28732 ft 506 kts 148°
2026-05-04 10:08 32.55236 -83.52417 30562 ft 521 kts 146°
2026-05-04 10:08 32.52315 -83.49833 30833 ft 523 kts 146°
2026-05-04 10:08 32.49385 -83.47247 31105 ft 524 kts 146°
2026-05-04 10:08 32.46498 -83.44704 31418 ft 524 kts 147°
2026-05-04 10:09 32.43572 -83.42128 31727 ft 523 kts 147°
2026-05-04 10:09 32.40657 -83.39565 32061 ft 522 kts 147°
2026-05-04 10:09 32.37747 -83.37010 32368 ft 521 kts 147°
2026-05-04 10:09 32.34829 -83.34450 32665 ft 520 kts 147°
2026-05-04 10:10 32.31922 -83.31901 32990 ft 520 kts 147°
2026-05-04 10:10 32.29016 -83.29355 33286 ft 519 kts 147°
2026-05-04 10:10 32.26098 -83.26802 33557 ft 519 kts 147°
2026-05-04 10:10 32.23191 -83.24259 33835 ft 518 kts 147°
2026-05-04 10:11 32.20294 -83.21728 34092 ft 518 kts 147°
2026-05-04 10:11 32.17432 -83.19229 34313 ft 518 kts 147°
2026-05-04 10:11 32.14536 -83.16703 34471 ft 518 kts 148°
2026-05-04 10:11 32.11635 -83.14173 34644 ft 519 kts 147°
2026-05-04 10:12 32.08730 -83.11644 34811 ft 519 kts 148°
2026-05-04 10:12 32.05814 -83.09107 35012 ft 518 kts 148°
2026-05-04 10:12 31.99969 -83.04038 35126 ft 524 kts 148°
2026-05-04 10:13 31.94106 -82.98972 35133 ft 526 kts 148°
2026-05-04 10:13 31.88221 -82.93877 35136 ft 524 kts 148°
2026-05-04 10:14 31.82342 -82.88790 35126 ft 526 kts 148°
2026-05-04 10:16 31.59420 -82.67218 35131 ft 529 kts 144°
2026-05-04 10:16 31.53705 -82.61779 35126 ft 529 kts 145°
2026-05-04 10:17 31.48020 -82.56381 35127 ft 529 kts 145°
2026-05-04 10:19 31.25112 -82.34709 35135 ft 528 kts 145°
2026-05-04 10:19 31.19384 -82.29312 35138 ft 528 kts 145°
2026-05-04 10:20 31.13689 -82.23960 35148 ft 528 kts 145°
2026-05-04 10:20 31.07941 -82.18585 35156 ft 528 kts 145°
2026-05-04 10:21 31.02205 -82.13218 35184 ft 528 kts 145°
2026-05-04 10:21 30.96471 -82.07851 35152 ft 529 kts 145°
2026-05-04 10:22 30.87886 -81.99827 35181 ft 530 kts 146°
2026-05-04 10:23 30.82137 -81.94466 35165 ft 530 kts 146°
2026-05-04 10:25 30.58674 -81.73780 35120 ft 530 kts 150°
2026-05-04 10:25 30.52604 -81.68912 35118 ft 530 kts 150°
2026-05-04 10:26 30.46550 -81.64022 35128 ft 530 kts 150°
2026-05-04 10:26 30.40518 -81.59140 35119 ft 528 kts 150°
2026-05-04 10:27 30.34529 -81.54299 35119 ft 528 kts 150°
2026-05-04 10:27 30.28497 -81.49434 35119 ft 528 kts 150°
2026-05-04 10:28 30.22470 -81.44581 35121 ft 528 kts 150°
2026-05-04 10:28 30.16431 -81.39725 35119 ft 528 kts 150°
2026-05-04 10:29 30.10382 -81.34879 35082 ft 528 kts 151°
2026-05-04 10:29 30.04325 -81.30038 35117 ft 531 kts 151°
2026-05-04 10:30 29.98258 -81.25185 35119 ft 529 kts 151°
2026-05-04 10:30 29.93236 -81.21169 35118 ft 528 kts 151°
2026-05-04 10:31 29.86208 -81.15560 35116 ft 529 kts 151°
2026-05-04 10:32 29.64389 -81.04080 35102 ft 516 kts 165°
2026-05-04 10:33 29.57734 -81.00942 35098 ft 517 kts 165°
2026-05-04 10:33 29.51144 -80.97796 35069 ft 516 kts 165°
2026-05-04 10:34 29.44491 -80.94623 35097 ft 517 kts 165°
2026-05-04 10:34 29.37838 -80.91460 35096 ft 517 kts 165°
2026-05-04 10:35 29.31193 -80.88306 35096 ft 515 kts 165°
2026-05-04 10:35 29.24621 -80.85192 35091 ft 514 kts 165°
2026-05-04 10:36 29.17996 -80.82058 35085 ft 513 kts 166°
2026-05-04 10:36 29.11394 -80.78938 35085 ft 513 kts 166°
2026-05-04 10:37 29.04834 -80.75846 35087 ft 512 kts 166°
2026-05-04 10:37 28.98229 -80.72746 35077 ft 512 kts 166°
2026-05-04 10:39 28.80163 -80.59462 35057 ft 548 kts 131°
2026-05-04 10:39 28.78111 -80.55766 35055 ft 554 kts 123°
2026-05-04 10:40 28.74534 -80.47952 35049 ft 554 kts 123°
2026-05-04 10:40 28.70653 -80.40408 35044 ft 550 kts 128°
2026-05-04 10:41 28.66422 -80.33162 35038 ft 548 kts 130°
2026-05-04 10:41 28.62143 -80.26058 35044 ft 548 kts 130°
2026-05-04 10:42 28.57849 -80.18883 35035 ft 549 kts 130°
2026-05-04 10:42 28.53549 -80.11660 35046 ft 549 kts 131°
2026-05-04 10:43 28.49291 -80.04503 35049 ft 546 kts 131°
2026-05-04 10:45 28.32206 -79.75950 35049 ft 545 kts 131°
2026-05-04 10:45 28.27971 -79.68898 35045 ft 543 kts 131°
2026-05-04 10:46 28.23697 -79.61809 35036 ft 545 kts 131°
2026-05-04 10:46 28.19381 -79.54693 35045 ft 547 kts 131°
2026-05-04 10:47 28.15081 -79.47587 35045 ft 546 kts 131°
2026-05-04 10:47 28.10788 -79.40488 35030 ft 545 kts 132°
2026-05-04 10:49 27.93728 -79.12400 35025 ft 541 kts 133°
2026-05-04 10:50 27.89443 -79.05398 35008 ft 540 kts 133°
2026-05-04 10:52 27.72519 -78.77775 35010 ft 534 kts 133°
2026-05-04 10:52 27.68310 -78.70927 35010 ft 534 kts 133°
2026-05-04 10:54 27.51868 -78.43034 35000 ft 535 kts 131°
2026-05-04 10:56 27.35335 -78.15184 35004 ft 525 kts 140°
2026-05-04 10:56 27.32825 -78.12334 35005 ft 513 kts 149°
2026-05-04 10:57 27.30014 -78.09945 34992 ft 501 kts 157°
2026-05-04 10:57 27.24053 -78.05990 34997 ft 497 kts 160°
2026-05-04 10:58 27.18124 -78.01990 34988 ft 500 kts 157°
2026-05-04 10:58 27.12276 -77.97737 34992 ft 502 kts 156°
2026-05-04 10:59 27.06454 -77.93391 34991 ft 500 kts 156°
2026-05-04 10:59 27.00683 -77.89083 34986 ft 497 kts 156°
2026-05-04 11:00 26.94937 -77.84820 34996 ft 498 kts 156°
2026-05-04 11:02 26.71877 -77.67775 34985 ft 496 kts 156°
2026-05-04 11:05 26.28780 -77.36166 34966 ft 494 kts 155°
2026-05-04 11:06 26.22992 -77.31943 34987 ft 497 kts 155°
2026-05-04 11:06 26.17208 -77.27722 34988 ft 497 kts 155°
2026-05-04 11:10 25.76499 -76.98197 34993 ft 502 kts 153°
2026-05-04 11:12 25.52995 -76.81251 34988 ft 508 kts 154°
2026-05-04 11:12 25.47060 -76.76982 34990 ft 508 kts 154°
2026-05-04 11:13 25.41186 -76.72763 34993 ft 508 kts 154°
2026-05-04 11:13 25.35246 -76.68502 34993 ft 508 kts 154°
2026-05-04 11:14 25.29297 -76.64242 34992 ft 511 kts 154°
2026-05-04 11:16 25.05416 -76.47209 34996 ft 511 kts 154°
2026-05-04 11:16 24.99429 -76.42944 34981 ft 512 kts 154°
2026-05-04 11:17 24.93463 -76.38702 34997 ft 513 kts 154°
2026-05-04 11:19 24.70459 -76.22385 35001 ft 513 kts 154°
2026-05-04 11:19 24.63480 -76.17449 34995 ft 512 kts 154°
2026-05-04 11:20 24.58501 -76.13931 35001 ft 511 kts 155°
2026-05-04 11:20 24.52529 -76.09714 35001 ft 509 kts 155°
2026-05-04 11:22 24.28656 -75.92837 35006 ft 511 kts 154°
2026-05-04 11:23 24.22714 -75.88645 35006 ft 511 kts 154°
2026-05-04 11:25 24.01767 -75.73909 35007 ft 511 kts 154°
2026-05-04 11:25 23.95775 -75.69704 35008 ft 511 kts 154°
2026-05-04 11:27 23.68837 -75.50882 34988 ft 511 kts 154°
2026-05-04 11:28 23.62847 -75.46705 35008 ft 512 kts 154°
2026-05-04 11:28 23.56838 -75.42518 34999 ft 512 kts 154°
2026-05-04 11:29 23.50837 -75.38342 35010 ft 511 kts 154°
2026-05-04 11:29 23.44866 -75.34191 35012 ft 511 kts 154°
2026-05-04 11:33 23.02842 -75.05173 34980 ft 511 kts 153°
2026-05-04 11:33 22.96820 -75.01078 35011 ft 510 kts 153°
2026-05-04 11:34 22.90789 -74.96978 35010 ft 510 kts 153°
2026-05-04 11:34 22.84768 -74.92887 35012 ft 511 kts 153°
2026-05-04 11:35 22.78747 -74.88800 35012 ft 511 kts 153°
2026-05-04 11:35 22.72766 -74.84744 35012 ft 510 kts 153°
2026-05-04 11:36 22.66731 -74.80657 35006 ft 510 kts 153°
2026-05-04 11:36 22.60699 -74.76576 35012 ft 511 kts 153°
2026-05-04 11:37 22.54670 -74.72501 35012 ft 511 kts 153°
2026-05-04 11:37 22.48633 -74.68425 35012 ft 511 kts 153°
2026-05-04 11:38 22.42647 -74.64388 35012 ft 511 kts 153°
2026-05-04 11:38 22.36616 -74.60329 35012 ft 511 kts 153°
2026-05-04 11:39 22.30573 -74.56272 35008 ft 509 kts 153°
2026-05-04 11:41 22.09539 -74.42153 35012 ft 509 kts 153°
2026-05-04 11:41 22.03524 -74.38122 35013 ft 509 kts 153°
2026-05-04 11:42 21.97497 -74.34089 35010 ft 508 kts 153°
2026-05-04 11:42 21.91497 -74.30076 35011 ft 508 kts 153°
2026-05-04 11:43 21.85495 -74.26068 35011 ft 508 kts 153°
2026-05-04 11:43 21.79529 -74.22087 35013 ft 508 kts 153°
2026-05-04 11:44 21.73524 -74.18084 35016 ft 507 kts 153°
2026-05-04 11:44 21.67515 -74.14084 34998 ft 507 kts 152°
2026-05-04 11:45 21.61544 -74.10122 35007 ft 506 kts 152°
2026-05-04 11:45 21.55544 -74.06141 35013 ft 506 kts 152°
2026-05-04 11:46 21.49540 -74.02156 35014 ft 506 kts 152°
2026-05-04 11:46 21.43580 -73.98202 35013 ft 506 kts 152°
2026-05-04 11:47 21.37588 -73.94231 35014 ft 506 kts 152°
2026-05-04 11:47 21.31599 -73.90266 35008 ft 506 kts 152°
2026-05-04 11:48 21.25605 -73.86302 35013 ft 505 kts 152°
2026-05-04 11:48 21.19616 -73.82344 35014 ft 505 kts 152°
2026-05-04 11:49 21.13657 -73.78412 35012 ft 505 kts 152°
2026-05-04 11:49 21.07643 -73.74515 35010 ft 504 kts 154°
2026-05-04 11:50 21.01478 -73.70931 35013 ft 503 kts 156°
2026-05-04 11:50 20.95274 -73.67450 35006 ft 502 kts 156°
2026-05-04 11:51 20.89093 -73.63962 35006 ft 502 kts 155°
2026-05-04 11:51 20.82954 -73.60479 35012 ft 502 kts 155°
2026-05-04 11:52 20.76780 -73.56972 35012 ft 502 kts 155°
2026-05-04 11:52 20.70595 -73.53462 35013 ft 502 kts 155°
2026-05-04 11:53 20.64421 -73.49963 35009 ft 502 kts 155°
2026-05-04 11:53 20.58238 -73.46463 35008 ft 502 kts 155°
2026-05-04 11:55 20.33548 -73.32520 35006 ft 502 kts 156°
2026-05-04 11:56 20.27361 -73.29043 35003 ft 503 kts 155°
2026-05-04 11:56 20.21175 -73.25564 35006 ft 503 kts 155°
2026-05-04 11:57 20.14985 -73.22083 35006 ft 503 kts 155°
2026-05-04 11:57 20.08788 -73.18620 35007 ft 503 kts 155°
2026-05-04 11:58 20.02641 -73.15196 35010 ft 503 kts 155°
2026-05-04 11:58 19.96440 -73.11745 35006 ft 503 kts 155°
2026-05-04 11:59 19.90228 -73.08286 35012 ft 503 kts 155°
2026-05-04 11:59 19.84023 -73.04806 35016 ft 503 kts 155°
2026-05-04 12:00 19.77866 -73.01335 35015 ft 504 kts 155°
2026-05-04 12:00 19.71738 -72.97718 35012 ft 504 kts 153°
2026-05-04 12:01 19.65633 -72.94027 35017 ft 504 kts 153°
2026-05-04 12:02 19.44284 -72.81193 35017 ft 505 kts 153°
2026-05-04 12:03 19.38163 -72.77527 35022 ft 505 kts 153°
2026-05-04 12:03 19.32042 -72.73863 35021 ft 505 kts 153°
2026-05-04 12:04 19.25929 -72.70208 35016 ft 505 kts 153°
2026-05-04 12:04 19.19807 -72.66550 35031 ft 504 kts 153°
2026-05-04 12:05 19.14715 -72.63509 35034 ft 504 kts 153°
2026-05-04 12:05 19.07596 -72.59279 35034 ft 504 kts 153°
2026-05-04 12:06 19.02458 -72.56275 35030 ft 503 kts 153°
2026-05-04 12:06 18.96361 -72.52722 35041 ft 503 kts 153°
2026-05-04 12:07 18.90212 -72.49138 35039 ft 503 kts 153°
2026-05-04 12:07 18.84074 -72.45558 35034 ft 503 kts 153°
2026-05-04 12:08 18.77977 -72.42004 35026 ft 503 kts 153°
2026-05-04 12:08 18.71835 -72.38428 35027 ft 503 kts 153°
2026-05-04 12:09 18.65697 -72.34857 35020 ft 503 kts 153°
2026-05-04 12:09 18.59522 -72.31377 35010 ft 503 kts 155°
2026-05-04 12:10 18.53269 -72.28154 35021 ft 503 kts 156°
2026-05-04 12:10 18.46962 -72.24962 35024 ft 503 kts 156°
2026-05-04 12:11 18.40672 -72.21760 35034 ft 502 kts 156°
2026-05-04 12:11 18.34373 -72.18540 35056 ft 502 kts 156°
2026-05-04 12:12 18.28097 -72.15331 35055 ft 502 kts 156°
2026-05-04 12:12 18.21876 -72.12058 35046 ft 503 kts 153°
2026-05-04 12:14 17.97390 -71.97688 35032 ft 504 kts 152°
2026-05-04 12:15 17.91272 -71.94067 35024 ft 504 kts 151°
2026-05-04 12:15 17.85218 -71.90291 35033 ft 508 kts 150°
2026-05-04 12:16 17.79184 -71.86473 35036 ft 509 kts 150°
2026-05-04 12:16 17.73115 -71.82647 35035 ft 508 kts 150°
2026-05-04 12:17 17.67087 -71.78860 35033 ft 507 kts 150°
2026-05-04 12:17 17.61021 -71.75056 35033 ft 509 kts 150°
2026-05-04 12:18 17.54944 -71.71248 35022 ft 508 kts 150°
2026-05-04 12:18 17.48864 -71.67439 35030 ft 508 kts 150°
2026-05-04 12:19 17.42784 -71.63628 35032 ft 511 kts 150°
2026-05-04 12:19 17.36724 -71.59831 35031 ft 509 kts 150°
2026-05-04 12:20 17.30641 -71.56022 35037 ft 508 kts 150°
2026-05-04 12:20 17.24556 -71.52217 35033 ft 509 kts 150°
2026-05-04 12:21 17.18467 -71.48411 35031 ft 509 kts 150°
2026-05-04 12:21 17.12427 -71.44641 35029 ft 508 kts 150°
2026-05-04 12:22 17.06359 -71.40852 35028 ft 508 kts 150°
2026-05-04 12:22 17.00276 -71.37055 35030 ft 510 kts 150°
2026-05-04 12:23 16.94185 -71.33256 35024 ft 508 kts 150°
2026-05-04 12:23 16.88119 -71.29469 35027 ft 508 kts 150°
2026-05-04 12:24 16.82048 -71.25671 35026 ft 510 kts 150°
2026-05-04 12:24 16.76001 -71.21886 35026 ft 509 kts 150°
2026-05-04 12:25 16.69925 -71.18087 35023 ft 508 kts 150°
2026-05-04 12:25 16.63857 -71.14296 35025 ft 508 kts 150°
2026-05-04 12:26 16.57778 -71.10502 35023 ft 508 kts 150°
2026-05-04 12:26 16.51743 -71.06737 35023 ft 507 kts 150°
2026-05-04 12:27 16.45680 -71.02958 35023 ft 508 kts 150°
2026-05-04 12:27 16.39618 -70.99182 35026 ft 508 kts 150°
2026-05-04 12:28 16.33597 -70.95435 35026 ft 507 kts 150°
2026-05-04 12:28 16.27544 -70.91670 35023 ft 506 kts 150°
2026-05-04 12:29 16.21486 -70.87906 35020 ft 507 kts 150°
2026-05-04 12:29 16.15431 -70.84152 35015 ft 506 kts 150°
2026-05-04 12:30 16.09411 -70.80422 35022 ft 507 kts 150°
2026-05-04 12:30 16.03333 -70.76692 35020 ft 506 kts 153°
2026-05-04 12:31 15.96753 -70.74253 35017 ft 501 kts 171°
2026-05-04 12:31 15.89847 -70.73234 35018 ft 501 kts 175°
2026-05-04 12:32 15.79528 -70.71789 35015 ft 502 kts 173°
2026-05-04 12:33 15.72610 -70.70644 35018 ft 504 kts 173°
2026-05-04 12:33 15.65684 -70.69464 35018 ft 504 kts 173°
2026-05-04 12:34 15.58760 -70.68288 35015 ft 504 kts 173°
2026-05-04 12:34 15.51869 -70.67125 35015 ft 504 kts 173°
2026-05-04 12:35 15.44943 -70.65959 35012 ft 504 kts 173°
2026-05-04 12:35 15.38006 -70.64792 35015 ft 506 kts 173°
2026-05-04 12:36 15.31054 -70.63622 35015 ft 505 kts 173°
2026-05-04 12:36 15.24115 -70.62455 35015 ft 505 kts 173°
2026-05-04 12:37 15.17161 -70.61286 35012 ft 506 kts 173°
2026-05-04 12:37 15.10243 -70.60127 35009 ft 505 kts 173°
2026-05-04 12:38 15.03292 -70.58961 35012 ft 505 kts 173°
2026-05-04 12:38 14.96356 -70.57798 35013 ft 505 kts 173°
2026-05-04 12:39 14.89456 -70.56642 35012 ft 505 kts 173°
2026-05-04 12:39 14.82521 -70.55480 35013 ft 505 kts 173°
2026-05-04 12:39 14.79035 -70.54897 34744 ft 510 kts 173°
2026-05-04 12:40 14.75526 -70.54311 34396 ft 509 kts 173°
2026-05-04 12:40 14.72031 -70.53725 34057 ft 508 kts 173°
2026-05-04 12:40 14.68530 -70.53140 33678 ft 509 kts 173°
2026-05-04 12:40 14.65073 -70.52562 33306 ft 511 kts 173°
2026-05-04 12:41 14.61566 -70.51976 32932 ft 511 kts 173°
2026-05-04 12:41 14.58051 -70.51388 32564 ft 511 kts 173°
2026-05-04 12:41 14.54525 -70.50799 32191 ft 512 kts 173°
2026-05-04 12:41 14.50996 -70.50210 31721 ft 513 kts 173°
2026-05-04 12:42 14.47476 -70.49623 31254 ft 511 kts 173°
2026-05-04 12:42 14.43982 -70.49038 30790 ft 506 kts 173°
2026-05-04 12:42 14.40527 -70.48461 30334 ft 500 kts 173°
2026-05-04 12:42 14.37105 -70.47889 29846 ft 496 kts 173°
2026-05-04 12:43 14.33723 -70.47326 29317 ft 491 kts 173°
2026-05-04 12:43 14.30405 -70.46774 28802 ft 487 kts 173°
2026-05-04 12:43 14.27061 -70.46218 28296 ft 483 kts 174°
2026-05-04 12:43 14.23757 -70.45669 27783 ft 479 kts 173°
2026-05-04 12:44 14.20488 -70.45125 27242 ft 474 kts 173°
2026-05-04 12:44 14.17226 -70.44583 26690 ft 471 kts 173°
2026-05-04 12:44 14.13992 -70.44045 26146 ft 467 kts 173°
2026-05-04 12:44 14.10847 -70.43519 25618 ft 462 kts 173°
2026-05-04 12:45 14.07682 -70.42985 25079 ft 459 kts 173°
2026-05-04 12:45 14.04552 -70.42460 24544 ft 453 kts 172°
2026-05-04 12:45 14.01458 -70.41943 24027 ft 449 kts 172°
2026-05-04 12:45 13.98386 -70.41431 23477 ft 443 kts 173°
2026-05-04 12:46 13.95384 -70.40931 22826 ft 431 kts 172°
2026-05-04 12:46 13.92464 -70.40445 22223 ft 419 kts 172°
2026-05-04 12:46 13.89618 -70.39974 21620 ft 408 kts 171°
2026-05-04 12:46 13.86848 -70.39515 21038 ft 398 kts 171°
2026-05-04 12:47 13.84139 -70.39067 20462 ft 391 kts 171°
2026-05-04 12:47 13.81464 -70.38625 19898 ft 387 kts 170°
2026-05-04 12:47 13.78820 -70.38188 19370 ft 382 kts 170°
2026-05-04 12:47 13.76208 -70.37755 18854 ft 378 kts 169°
2026-05-04 12:48 13.73664 -70.37335 18336 ft 373 kts 169°
2026-05-04 12:48 13.71123 -70.36914 17771 ft 367 kts 168°
2026-05-04 12:48 13.68606 -70.36497 17180 ft 365 kts 169°
2026-05-04 12:48 13.66100 -70.36081 16617 ft 363 kts 169°
2026-05-04 12:49 13.63612 -70.35669 16059 ft 358 kts 169°
2026-05-04 12:49 13.61174 -70.35266 15503 ft 350 kts 168°
2026-05-04 12:49 13.58786 -70.34873 14969 ft 344 kts 168°
2026-05-04 12:49 13.56475 -70.34491 14446 ft 338 kts 168°
2026-05-04 12:50 13.54155 -70.34107 13927 ft 338 kts 168°
2026-05-04 12:50 13.51832 -70.33722 13362 ft 336 kts 167°
2026-05-04 12:50 13.49532 -70.33342 12785 ft 333 kts 166°
2026-05-04 12:50 13.47251 -70.32965 12225 ft 330 kts 166°
2026-05-04 12:51 13.45001 -70.32593 11675 ft 325 kts 168°
2026-05-04 12:51 13.42787 -70.32229 11149 ft 319 kts 166°
2026-05-04 12:51 13.40603 -70.31868 10642 ft 315 kts 167°
2026-05-04 12:51 13.38453 -70.31514 10138 ft 310 kts 166°
2026-05-04 12:52 13.36342 -70.31166 9608 ft 305 kts 167°
2026-05-04 12:52 13.34256 -70.30822 9067 ft 302 kts 166°
2026-05-04 12:52 13.32202 -70.30482 8512 ft 298 kts 168°
2026-05-04 12:52 13.30159 -70.30145 7993 ft 295 kts 165°
2026-05-04 12:53 13.28175 -70.29816 7563 ft 289 kts 166°
2026-05-04 12:53 13.26203 -70.29492 7306 ft 277 kts 167°
2026-05-04 12:53 13.24358 -70.29192 7071 ft 266 kts 166°
2026-05-04 12:53 13.22580 -70.28902 6885 ft 250 kts 166°
2026-05-04 12:54 13.20920 -70.28634 6731 ft 234 kts 165°
2026-05-04 12:54 13.19390 -70.28387 6429 ft 214 kts 165°
2026-05-04 12:54 13.17923 -70.28174 5704 ft 213 kts 169°
2026-05-04 12:54 13.16959 -70.28073 5430 ft 204 kts 169°
2026-05-04 12:55 13.15499 -70.27927 5329 ft 214 kts 167°
2026-05-04 12:55 13.14028 -70.27780 5197 ft 213 kts 169°
2026-05-04 12:55 13.12554 -70.27631 5082 ft 213 kts 169°
2026-05-04 12:55 13.11071 -70.27483 4963 ft 214 kts 168°
2026-05-04 12:56 13.09591 -70.27335 4841 ft 213 kts 168°
2026-05-04 12:56 13.08123 -70.27188 4725 ft 212 kts 168°
2026-05-04 12:56 13.06651 -70.27039 4603 ft 212 kts 169°
2026-05-04 12:56 13.05192 -70.26893 4473 ft 209 kts 169°
2026-05-04 12:57 13.03750 -70.26749 4349 ft 208 kts 168°
2026-05-04 12:57 13.02307 -70.26603 4226 ft 209 kts 167°
2026-05-04 12:57 13.00856 -70.26455 4108 ft 210 kts 168°
2026-05-04 12:57 12.99416 -70.26310 4036 ft 210 kts 167°
2026-05-04 12:58 12.97964 -70.26164 3964 ft 210 kts 168°
2026-05-04 12:58 12.96506 -70.26016 3880 ft 211 kts 169°
2026-05-04 12:58 12.95039 -70.25868 3823 ft 212 kts 168°
2026-05-04 12:58 12.93568 -70.25720 3756 ft 212 kts 168°
2026-05-04 12:59 12.92110 -70.25574 3679 ft 210 kts 167°
2026-05-04 12:59 12.90648 -70.25426 3614 ft 211 kts 168°
2026-05-04 12:59 12.89182 -70.25278 3530 ft 211 kts 167°
2026-05-04 12:59 12.87724 -70.25131 3457 ft 210 kts 167°
2026-05-04 13:00 12.86267 -70.24984 3387 ft 210 kts 168°
2026-05-04 13:00 12.84807 -70.24839 3311 ft 211 kts 167°
2026-05-04 13:00 12.83346 -70.24693 3250 ft 210 kts 167°
2026-05-04 13:00 12.81912 -70.24548 3165 ft 209 kts 166°
2026-05-04 13:01 12.80462 -70.24401 3094 ft 209 kts 167°
2026-05-04 13:01 12.79014 -70.24254 3021 ft 209 kts 167°
2026-05-04 13:01 12.77565 -70.24108 2999 ft 209 kts 167°
2026-05-04 13:01 12.76119 -70.23963 3007 ft 208 kts 166°
2026-05-04 13:02 12.74680 -70.23817 3000 ft 208 kts 166°
2026-05-04 13:02 12.73235 -70.23671 2999 ft 208 kts 167°
2026-05-04 13:02 12.71797 -70.23526 2998 ft 207 kts 166°
2026-05-04 13:02 12.70377 -70.23383 2996 ft 207 kts 167°
2026-05-04 13:03 12.68940 -70.23238 2997 ft 208 kts 166°
2026-05-04 13:03 12.67508 -70.23094 3002 ft 205 kts 168°
2026-05-04 13:03 12.66159 -70.22966 2961 ft 185 kts 167°
2026-05-04 13:03 12.64879 -70.22839 3002 ft 185 kts 167°
2026-05-04 13:04 12.63598 -70.22709 3002 ft 186 kts 166°
2026-05-04 13:04 12.62307 -70.22577 3009 ft 186 kts 166°
2026-05-04 13:04 12.61021 -70.22447 3008 ft 186 kts 166°
2026-05-04 13:04 12.59733 -70.22316 3010 ft 185 kts 166°
2026-05-04 13:05 12.58458 -70.22188 2999 ft 184 kts 166°
2026-05-04 13:05 12.57200 -70.21988 3005 ft 181 kts 158°
2026-05-04 13:05 12.56073 -70.21487 3002 ft 174 kts 140°
2026-05-04 13:05 12.55204 -70.20679 3013 ft 170 kts 123°
2026-05-04 13:06 12.54649 -70.19632 2996 ft 166 kts 107°
2026-05-04 13:06 12.54309 -70.18492 2988 ft 169 kts 106°
2026-05-04 13:06 12.53956 -70.17336 2782 ft 170 kts 106°
2026-05-04 13:06 12.53622 -70.16161 2485 ft 178 kts 103°
2026-05-04 13:07 12.53341 -70.14947 2391 ft 167 kts 102°
2026-05-04 13:07 12.53097 -70.13846 2128 ft 150 kts 101°
2026-05-04 13:07 12.52864 -70.12814 1928 ft 145 kts 101°
2026-05-04 13:07 12.52626 -70.11842 1738 ft 143 kts 102°
2026-05-04 13:08 12.52375 -70.10866 1593 ft 139 kts 103°
2026-05-04 13:08 12.52139 -70.09926 1393 ft 134 kts 101°
2026-05-04 13:08 12.51918 -70.08969 1231 ft 144 kts 100°
2026-05-04 13:08 12.51699 -70.07962 1049 ft 142 kts 104°
2026-05-04 13:09 12.51476 -70.07005 823 ft 137 kts 106°
2026-05-04 13:09 12.51236 -70.06054 684 ft 135 kts 102°
2026-05-04 13:09 12.51011 -70.05140 490 ft 134 kts 104°
2026-05-04 13:09 12.50791 -70.04230 328 ft 131 kts 103°
2026-05-04 13:10 12.50565 -70.03304 172 ft 133 kts 102°
2026-05-04 13:10 12.50341 -70.02371 36 ft 127 kts 102°
2026-05-04 13:10 12.50177 -70.01684 40 ft 71 kts 104°
2026-05-04 13:10 12.50125 -70.01450 45 ft 11 kts 90°
2026-05-04 13:11 12.50142 -70.01419 45 ft 3 kts 43°
2026-05-04 13:11 12.50157 -70.01410 45 ft 4 kts 30°
2026-05-04 13:11 12.50194 -70.01395 46 ft 8 kts 20°
2026-05-04 13:11 12.50253 -70.01382 46 ft 6 kts 15°
2026-05-04 13:12 12.50266 -70.01366 46 ft 4 kts 61°
2026-05-04 13:12 12.50266 -70.01316 47 ft 8 kts 100°
2026-05-04 13:12 12.50256 -70.01272 47 ft 5 kts 102°
2026-05-04 13:12 12.50248 -70.01233 48 ft 8 kts 102°
2026-05-04 13:13 12.50232 -70.01154 50 ft 13 kts 101°
2026-05-04 13:13 12.50253 -70.01102 49 ft 10 kts 34°
2026-05-04 13:13 12.50324 -70.01077 51 ft 9 kts 14°
2026-05-04 13:13 12.50347 -70.01074 51 ft 0 kts